Total_Precipitation_Accumulation
2.66 2.54 3.72 3.87 3.25 2.53 2.32 2.27 2.09 1.96 1.94 1.98 1.82 1.69 1.56 1.50 1.36 1.22 1.08 1.00 0.98 0.98 1.03 1.05 1.12 1.24 1.24 1.15 1.07 1.30 1.37 1.33 1.29 1.28 1.43 1.64 1.80 1.98 2.17 2.38 2.64 2.92 2.67
2.17 2.15 3.43 3.68 3.12 2.47 2.14 2.09 2.06 1.95 2.02 1.97 1.95 1.81 1.70 1.53 1.39 1.25 1.03 1.02 1.03 1.02 0.99 1.03 1.14 1.15 1.14 1.19 1.19 1.36 1.38 1.25 1.18 1.28 1.64 1.94 1.94 2.00 2.09 2.12 2.48 2.80 2.54
1.69 1.78 2.61 3.31 2.99 2.47 2.13 1.97 2.01 2.00 2.11 2.06 2.06 1.88 1.72 1.58 1.50 1.33 1.17 1.21 1.17 1.07 1.00 0.98 1.12 1.17 1.14 1.31 1.32 1.34 1.29 1.25 1.24 1.47 2.11 2.88 2.50 2.12 2.09 2.09 2.31 2.27 2.27
1.54 1.62 1.96 2.72 2.61 2.18 1.97 1.96 2.07 2.10 2.23 2.15 2.00 1.80 1.66 1.64 1.57 1.41 1.30 1.39 1.21 1.08 1.02 1.02 1.14 1.25 1.18 1.30 1.31 1.26 1.21 1.28 1.48 1.62 2.13 2.77 2.89 2.37 2.24 2.31 2.28 2.20 2.29
1.49 1.59 2.12 2.71 2.45 2.13 1.93 2.10 2.31 2.31 2.29 2.10 1.86 1.67 1.66 1.68 1.62 1.54 1.52 1.48 1.22 1.12 1.05 1.04 1.13 1.17 1.16 1.21 1.19 1.23 1.27 1.48 1.75 1.67 1.97 2.47 2.99 2.79 2.27 2.25 2.29 2.31 2.46
1.51 1.60 2.02 2.58 2.42 2.20 2.01 2.22 2.34 2.38 2.40 2.27 2.00 1.76 1.70 1.67 1.62 1.56 1.59 1.43 1.26 1.15 1.04 1.01 1.08 1.14 1.14 1.18 1.20 1.21 1.33 1.53 1.60 1.69 1.99 2.40 2.76 2.77 2.33 2.21 2.32 2.54 2.54
1.37 1.39 1.64 2.30 2.40 2.25 2.14 2.35 2.41 2.46 2.59 2.55 2.27 2.06 1.84 1.68 1.61 1.58 1.60 1.45 1.35 1.27 1.18 1.14 1.16 1.17 1.13 1.19 1.16 1.12 1.12 1.15 1.18 1.45 1.70 2.29 2.47 2.49 2.42 2.28 2.23 2.31 2.41
1.45 1.35 1.35 1.99 2.25 2.24 2.28 2.33 2.31 2.34 2.40 2.44 2.21 1.99 1.79 1.64 1.58 1.66 1.68 1.50 1.41 1.28 1.22 1.22 1.27 1.32 1.27 1.24 1.21 1.15 1.10 0.91 0.88 1.11 1.45 2.01 2.40 2.41 2.36 2.45 2.47 2.40 2.49
1.58 1.52 1.41 1.55 1.86 2.20 2.25 2.12 2.11 2.09 2.11 2.24 2.07 1.92 1.71 1.60 1.51 1.58 1.63 1.52 1.44 1.39 1.36 1.33 1.43 1.44 1.30 1.26 1.23 1.16 1.10 0.89 0.91 1.10 1.15 1.82 2.37 2.42 2.25 2.30 2.55 2.68 2.68
1.77 1.64 1.45 1.39 1.48 1.57 1.79 1.93 2.07 2.13 2.12 2.19 2.01 1.79 1.63 1.53 1.39 1.46 1.45 1.42 1.49 1.53 1.58 1.56 1.58 1.52 1.45 1.34 1.22 1.11 1.02 0.83 0.92 1.00 1.33 1.78 2.35 2.52 2.35 2.17 2.18 2.28 2.36
1.56 1.46 1.50 1.50 1.53 1.57 1.52 1.58 1.89 2.03 2.06 1.94 1.86 1.75 1.57 1.30 1.15 1.24 1.27 1.50 1.59 1.69 1.76 1.77 1.72 1.66 1.49 1.30 1.19 1.02 0.84 0.80 0.96 1.10 1.54 2.04 2.48 2.66 2.45 2.13 2.00 1.98 2.05
1.29 1.25 1.32 1.35 1.47 1.52 1.37 1.59 1.88 1.73 1.64 1.40 1.42 1.29 1.32 1.24 1.17 0.97 1.14 1.52 1.66 1.68 1.66 1.72 1.78 1.58 1.27 0.95 0.90 0.83 0.74 0.73 0.80 0.97 1.53 2.23 2.56 2.65 2.38 2.20 2.13 2.07 2.11
1.08 1.05 1.01 1.07 1.12 1.25 1.42 1.66 1.96 2.02 1.83 1.61 1.37 1.28 1.32 1.23 1.11 0.99 1.01 1.16 1.29 1.32 1.18 1.20 1.22 1.09 0.99 0.90 0.87 0.76 0.73 0.72 0.79 0.95 1.63 2.27 2.56 2.68 2.50 2.35 2.36 2.38 2.37
0.89 0.99 0.82 0.73 0.88 1.04 1.16 1.30 1.58 1.65 1.58 1.46 1.26 1.17 1.28 1.30 1.18 1.13 1.11 1.15 1.16 1.14 1.17 1.14 1.19 1.15 0.97 0.87 0.86 0.90 0.87 0.82 0.90 1.12 1.64 2.14 2.53 2.80 2.72 2.61 2.63 2.61 2.73
0.89 0.94 0.85 0.73 0.72 0.80 0.86 0.97 1.12 1.28 1.35 1.38 1.34 1.16 1.17 1.29 1.25 1.22 1.16 1.21 1.09 1.01 1.08 1.14 1.16 1.18 1.08 0.93 0.89 0.91 1.00 0.93 0.93 1.08 1.37 1.82 2.36 2.83 3.02 2.93 2.71 2.60 2.66
0.83 0.93 0.91 0.80 0.78 0.80 0.77 0.76 0.77 0.91 1.09 1.21 1.25 1.16 1.18 1.27 1.28 1.34 1.27 1.21 1.15 1.06 1.09 1.25 1.21 1.23 1.20 1.13 0.98 0.99 1.01 0.96 0.94 0.98 1.13 1.49 1.85 2.27 2.77 3.12 2.94 2.69 2.48
0.80 0.85 0.91 0.89 0.90 0.91 0.87 0.83 0.69 0.73 0.83 1.00 1.15 1.14 1.22 1.19 1.13 1.20 1.22 1.16 1.15 1.16 1.18 1.22 1.26 1.32 1.23 1.15 1.11 1.07 1.06 1.01 0.93 0.96 0.93 1.08 1.20 1.56 2.04 2.50 2.82 2.83 2.68
0.83 0.89 0.95 0.95 0.99 1.02 1.03 1.00 0.91 0.93 1.01 1.09 1.25 1.23 1.20 1.24 1.21 1.20 1.22 1.22 1.25 1.29 1.28 1.31 1.37 1.36 1.31 1.29 1.26 1.23 1.11 1.08 1.02 1.00 0.93 0.93 1.00 1.03 1.29 1.60 2.00 2.39 2.63
0.79 0.83 0.88 0.97 1.02 1.06 1.11 1.19 1.28 1.31 1.30 1.30 1.37 1.31 1.21 1.23 1.28 1.40 1.43 1.44 1.40 1.41 1.41 1.36 1.39 1.30 1.31 1.33 1.25 1.28 1.23 1.18 1.12 0.99 1.01 0.98 0.99 0.94 1.01 1.02 1.19 1.44 1.83
0.71 0.76 0.83 0.90 1.07 1.19 1.26 1.28 1.43 1.48 1.53 1.59 1.63 1.47 1.34 1.38 1.51 1.70 1.78 1.68 1.64 1.64 1.62 1.56 1.62 1.51 1.40 1.43 1.32 1.30 1.26 1.17 1.20 1.16 1.13 1.08 1.12 1.05 0.98 0.88 0.87 0.83 1.07
0.60 0.65 0.74 0.80 0.96 1.06 1.12 1.26 1.47 1.62 1.79 1.92 1.99 1.85 1.70 1.67 1.82 1.97 1.89 1.97 1.99 1.85 1.86 1.92 1.95 1.92 1.74 1.61 1.66 1.55 1.30 1.11 1.17 1.14 1.13 1.18 1.19 1.26 1.24 1.09 0.95 0.87 0.87
0.38 0.43 0.53 0.65 0.72 0.86 1.03 1.29 1.50 1.79 1.85 1.90 2.02 2.06 1.96 1.90 2.05 2.10 2.17 2.25 2.28 2.28 2.22 2.11 2.22 2.37 2.12 1.89 1.99 2.27 1.89 1.55 1.20 0.97 1.07 1.13 1.18 1.40 1.42 1.21 1.01 0.93 0.91
0.30 0.33 0.42 0.55 0.70 0.94 1.18 1.50 1.78 2.07 2.18 2.22 2.15 2.18 2.20 2.22 2.28 2.31 2.37 2.42 2.43 2.28 2.27 2.38 2.51 2.86 2.67 2.31 2.10 2.36 2.21 1.90 1.62 1.18 1.07 1.12 1.18 1.34 1.42 1.42 1.29 1.22 1.12
0.28 0.35 0.48 0.68 0.91 1.18 1.51 1.89 2.16 2.41 2.54 2.37 2.33 2.32 2.28 2.21 2.24 2.36 2.36 2.34 2.30 2.24 2.31 2.38 2.43 2.85 3.07 2.78 2.43 2.02 1.80 1.76 1.87 1.62 1.21 1.13 1.19 1.19 1.29 1.37 1.31 1.37 1.36
0.43 0.52 0.70 0.98 1.29 1.56 1.81 2.01 2.26 2.40 2.40 2.35 2.31 2.31 2.21 2.15 2.11 2.13 2.13 2.23 2.24 2.28 2.34 2.50 2.64 2.91 2.94 2.94 2.76 2.54 2.30 1.97 1.63 1.73 1.69 1.39 1.30 1.18 1.26 1.38 1.43 1.51 1.54
0.62 0.78 0.97 1.16 1.47 1.66 1.80 1.91 2.07 2.22 2.26 2.25 2.25 2.29 2.27 2.22 2.09 2.00 1.93 2.01 2.15 2.29 2.34 2.44 2.60 2.86 2.98 3.06 2.99 2.70 2.59 2.43 2.15 2.04 1.80 1.64 1.59 1.34 1.29 1.32 1.36 1.49 1.65